G1 CYXU-CYXU

Flight info

Callsign G1
Flight time N/A
Altitude 2000
Route VFR CIRCUITS
Aircraft RAFL

Departure

Time 2026-04-28 01:22
Airport London International Airport (CYXU)

Arrival

Time N/A
Airport London International Airport (CYXU)
Time Latitude Longitude Altitude Speed Heading
2026-04-28 01:16 43.03566 -81.16275 907 ft 0 kts 73°
2026-04-28 01:17 43.03581 -81.16241 907 ft 3 kts 49°
2026-04-28 01:17 43.03585 -81.16236 907 ft 1 kts 49°
2026-04-28 01:17 43.03622 -81.16174 906 ft 7 kts 45°
2026-04-28 01:17 43.03647 -81.16109 905 ft 20 kts 76°
2026-04-28 01:18 43.03670 -81.15962 904 ft 5 kts 79°
2026-04-28 01:18 43.03683 -81.15863 903 ft 16 kts 83°
2026-04-28 01:18 43.03712 -81.15750 901 ft 8 kts 34°
2026-04-28 01:18 43.03722 -81.15744 901 ft 3 kts 21°
2026-04-28 01:19 43.03755 -81.15757 901 ft 11 kts 315°
2026-04-28 01:19 43.03786 -81.15793 901 ft 7 kts 320°
2026-04-28 01:19 43.03822 -81.15835 902 ft 7 kts 319°
2026-04-28 01:19 43.03848 -81.15867 903 ft 13 kts 320°
2026-04-28 01:20 43.03912 -81.15939 903 ft 12 kts 319°
2026-04-28 01:20 43.03981 -81.16021 906 ft 6 kts 351°
2026-04-28 01:20 43.04054 -81.16006 909 ft 13 kts
2026-04-28 01:20 43.04118 -81.15949 910 ft 11 kts 66°
2026-04-28 01:21 43.04100 -81.15855 908 ft 25 kts 139°
2026-04-28 01:21 43.03343 -81.14974 1029 ft 206 kts 139°
2026-04-28 01:21 43.02307 -81.13708 1155 ft 206 kts 135°
2026-04-28 01:21 43.01991 -81.11950 1405 ft 214 kts 68°
2026-04-28 01:22 43.03065 -81.10564 1820 ft 215 kts 14°
2026-04-28 01:22 43.04465 -81.10898 1820 ft 209 kts 317°
2026-04-28 01:22 43.05475 -81.12274 2008 ft 200 kts 313°
2026-04-28 01:22 43.06379 -81.13756 1975 ft 208 kts 307°
2026-04-28 01:23 43.06961 -81.14807 2053 ft 210 kts 307°
2026-04-28 01:23 43.08143 -81.17231 2155 ft 234 kts 287°
2026-04-28 01:23 43.08041 -81.18585 2019 ft 215 kts 232°
2026-04-28 01:23 43.06830 -81.19116 1918 ft 192 kts 165°
2026-04-28 01:24 43.05878 -81.18056 1512 ft 159 kts 132°
2026-04-28 01:24 43.05116 -81.17084 1246 ft 145 kts 139°
2026-04-28 01:24 43.04406 -81.16224 1005 ft 127 kts 139°
2026-04-28 01:24 43.03767 -81.15452 904 ft 126 kts 139°
2026-04-28 01:25 43.02546 -81.14026 1491 ft 335 kts 141°
2026-04-28 01:25 43.03134 -81.11295 2778 ft 396 kts 41°
2026-04-28 01:25 43.05489 -81.12127 3853 ft 353 kts 319°
2026-04-28 01:25 43.07189 -81.14147 2940 ft 293 kts 317°
2026-04-28 01:26 43.08638 -81.16112 2315 ft 295 kts 304°
2026-04-28 01:26 43.08197 -81.18006 1880 ft 221 kts 185°
2026-04-28 01:26 43.06867 -81.18243 1908 ft 172 kts 181°
2026-04-28 01:26 43.05851 -81.17866 1515 ft 143 kts 146°
2026-04-28 01:27 43.05082 -81.16991 1162 ft 139 kts 139°
2026-04-28 01:27 43.04365 -81.16148 966 ft 132 kts 140°
2026-04-28 01:27 43.03691 -81.15341 959 ft 184 kts 139°